GSAT-14

Last updated on Fri Dec 19 2025 00:02:51 GMT+0000 (Coordinated Universal Time)

1 39498U 14001A 25352.42593260 -.00000052 00000+0 00000+0 0 9993 2 39498 0.0406 114.4009 0005798 150.4269 49.8075 1.00271859 43564
UTC large
Height (km)
Speed (km/s)
/
Latitude / Longitude
Inclination (degrees)
Orbital Period (minutes)
Azimuth
Elevation
Range (km)
Doppler Factor

Next 0 passes for location: London (51.5072 / 0.1276)

Sorry there are no passes over London.